[[{"header":{"parameterUnit":"m.s-1","parameterCategory":2,"la1":30.2991,"la2":30.254,"lo1":-89.0895,"lo2":-89.0444,"dy":0.0017,"dx":0.0017,"nx":28,"ny":28,"refTime":"2026-01-01T03:00:00:Z","depth":"0","parameterNumber":2,"parameterNumberName":"U-component_of_CURRENTS"},"data":[0,0,0,0,0,0,0,0,0,0,0,0,0,0,0,0,0,0,0,0,0,0,0,0,0,0,0,0,0,0,0,0,0,0,0,0,0,0,0,0,0,0,0,0,0,0,0,0,0,0,0,0,0,0,0,0,0,0,0.1971,0.1972,0,0.2021,0.2021,0.2021,0.2031,0.2031,0.2031,0.2031,0.2033,0.2033,0.2033,0,0,0,0,0,0,0,0,0,0,0,0,0,0.1874,0.1876,0.1971,0.1972,0.1973,0.2021,0.2021,0.2021,0.2031,0.2031,0.2031,0.203,0.2033,0.2033,0.2033,0,0,0,0,0,0,0,0,0,0,0,0,0,0.1916,0.1876,0.1971,0.1986,0.1988,0.202,0.2021,0.2021,0.2031,0.2031,0.2031,0.203,0.2032,0.2033,0.2033,0.2037,0,0,0.2034,0.2034,0,0,0,0,0,0,0,0,0.1914,0.1919,0.1983,0.1985,0.1987,0.2022,0.1988,0.2025,0.2031,0.2011,0.2031,0.203,0.2027,0.2028,0.2033,0.2037,0.2037,0.2034,0.2034,0.2034,0.2034,0,0,0,0,0,0,0,0.1911,0.1917,0.1988,0.1984,0.1987,0.1987,0.1992,0.1995,0.2016,0.2013,0.2015,0.2025,0.2027,0.2033,0.2033,0.2037,0.2034,0.2034,0.2034,0.2034,0.2057,0.2057,0,0,0,0,0,0,0.1912,0.1915,0.1986,0.1989,0.1953,0.1989,0.1995,0.2009,0.2017,0.202,0.2025,0.2025,0.2033,0.2033,0.2033,0.2051,0.2034,0.2034,0.2034,0.2056,0.2057,0.2057,0,0,0,0,0,0,0.191,0.1918,0.1984,0.1955,0.1964,0.1991,0.2006,0.201,0.2018,0.2027,0.2028,0.2031,0.2033,0.2033,0.2042,0.2051,0.2034,0.2034,0.2055,0.2056,0.2057,0.2079,0,0,0,0,0,0,0.1907,0.1917,0.1926,0.1956,0.1966,0.2004,0.2007,0.2011,0.2026,0.2027,0.2032,0.2032,0.2033,0.2042,0.2042,0.2051,0.2034,0.2055,0.2056,0.2057,0.2078,0.2081,0.2083,0,0,0,0,0,0.1904,0.1917,0.1926,0.1935,0.1978,0.2004,0.2009,0.2025,0.2027,0.2031,0.2038,0.2032,0.2048,0.2043,0.2043,0.2052,0.2054,0.2056,0.2057,0.2077,0.208,0.2083,0,0,0,0,0,0,0.1874,0.1921,0.1931,0.1956,0.1979,0.2007,0.2017,0.2027,0.2036,0.2036,0.2039,0.204,0.2051,0.2048,0.2043,0.2061,0.205,0.2051,0.2065,0.2068,0.207,0.209,0.2035,0,0,0,0,0,0.1874,0.1898,0.1935,0.1953,0.1967,0.1991,0.2004,0.2016,0.2031,0.2036,0.204,0.2046,0.2056,0.2059,0.2063,0.2074,0.2131,0.2079,0.2082,0.2084,0.2101,0.2186,0.2199,0.2061,0.2061,0.2061,0,0,0.1865,0.1896,0.1908,0.1949,0.1968,0.199,0.1997,0.2019,0.2035,0.2034,0.2049,0.2053,0.206,0.2073,0.2078,0.2073,0.2161,0.2085,0.2087,0.2103,0.2189,0.2203,0.2215,0.2061,0.2061,0.2061,0,0,0.1863,0.189,0.191,0.1934,0.1971,0.1987,0.1994,0.2023,0.2034,0.2052,0.2057,0.207,0.2077,0.2091,0.2098,0.2116,0.217,0.2113,0.2144,0.2226,0.2239,0.2251,0.2379,0.2401,0.2115,0.2115,0.2115,0,0.1848,0.1886,0.1916,0.1943,0.1967,0.1987,0.201,0.2024,0.205,0.2072,0.2057,0.2102,0.2089,0.2134,0.2132,0.2123,0.2201,0.2131,0.2233,0.2245,0.2257,0.2384,0.241,0.2116,0.2116,0.2116,0.2116,0,0.1864,0.1895,0.1909,0.1953,0.1977,0.2001,0.2032,0.205,0.2063,0.2087,0.2131,0.2131,0.2169,0.2155,0.2145,0.2218,0.226,0.2227,0.2229,0.2273,0.2404,0.243,0.2118,0.2118,0.2117,0.2117,0,0,0.1831,0.1906,0.191,0.1942,0.1989,0.2013,0.2043,0.209,0.2138,0.2145,0.2223,0.2206,0.2229,0.2239,0.2237,0.2288,0.2426,0.2293,0.2297,0.2431,0.2667,0.2687,0.2718,0.242,0.2424,0.2427,0.274,0,0.1834,0.1889,0.1925,0.1972,0.2006,0.2043,0.208,0.2124,0.2168,0.2246,0.2264,0.2331,0.2258,0.2301,0.2334,0.2413,0.249,0.2347,0.2597,0.2605,0.2625,0.2745,0.2643,0.2911,0.2765,0.277,0.2773,0,0.1839,0.1882,0.1931,0.2012,0.203,0.2056,0.2144,0.2184,0.2285,0.2331,0.2397,0.2445,0.2531,0.2462,0.2625,0.2548,0.2612,0.2658,0.2671,0.2699,0.2672,0.2836,0.2964,0.2893,0.2813,0.281,0.2807,0,0.1815,0.1887,0.193,0.1955,0.2041,0.2071,0.2114,0.2205,0.2277,0.2413,0.2512,0.2598,0.2689,0.2764,0.2839,0.2766,0.3044,0.2957,0.3045,0.305,0.3015,0.301,0.3108,0.3088,0.3088,0.3087,0.3086,0,0.1815,0.1851,0.1923,0.195,0.2016,0.2071,0.2164,0.2223,0.2359,0.2471,0.2563,0.2686,0.2768,0.2922,0.2952,0.3112,0.3146,0.3105,0.3139,0.3023,0.3014,0.2989,0.2943,0.3099,0.3096,0.3094,0.3092,0,0.1789,0.1836,0.1893,0.1977,0.2009,0.2053,0.2187,0.2259,0.2395,0.2561,0.2627,0.2815,0.3019,0.3129,0.33,0.3285,0.3347,0.345,0.3333,0.3346,0.3313,0.3271,0.3318,0.3223,0.3622,0.3624,0.3626,0,0.1786,0.181,0.1899,0.1938,0.1977,0.2061,0.2121,0.2252,0.2345,0.2625,0.2708,0.298,0.3126,0.3431,0.3504,0.3664,0.3488,0.3629,0.3431,0.3352,0.3333,0.3151,0.3051,0.3425,0.3426,0.3426,0.3426,0,0.178,0.1804,0.1853,0.1929,0.1988,0.207,0.2169,0.2249,0.2423,0.2578,0.2791,0.2948,0.3275,0.3398,0.3627,0.3675,0.3467,0.3638,0.3578,0.3227,0.3016,0.2926,0.321,0.3428,0.3428,0.3427,0.3427,0.3427,0.1772,0.1799,0.1859,0.1932,0.1991,0.206,0.2103,0.2226,0.2367,0.2569,0.275,0.2937,0.3209,0.3521,0.3563,0.3608,0.3533,0.3499,0.3483,0.3326,0.3132,0.3449,0.3666,0.3667,0.3668,0.3669,0.367,0,0.1774,0.1808,0.1865,0.1938,0.1973,0.2025,0.2124,0.2149,0.226,0.2467,0.2633,0.2905,0.3103,0.3297,0.3505,0.3449,0.3235,0.3379,0.3076,0.3002,0.3336,0.3219,0.3319,0.3319,0.332,0.332,0.332,0.332,0.1779,0.1824,0.1856,0.1911,0.1946,0.1962,0.1993,0.2032,0.2142,0.2295,0.2443,0.2631,0.3036,0.3372,0.3414,0.3326,0.3052,0.2972,0.2937,0.3157,0.3163,0.3169,0.3046,0.3109,0.3109,0.2442,0.2438,0.2434]},{"header":{"parameterUnit":"m.s-1","parameterCategory":2,"la1":30.2991,"la2":30.254,"lo1":-89.0895,"lo2":-89.0444,"dy":0.0017,"dx":0.0017,"nx":28,"ny":28,"refTime":"2026-01-01T03:00:00:Z","depth":"0","parameterNumber":3,"parameterNumberName":"V-component_of_CURRENTS"},"data":[0,0,0,0,0,0,0,0,0,0,0,0,0,0,0,0,0,0,0,0,0,0,0,0,0,0,0,0,0,0,0,0,0,0,0,0,0,0,0,0,0,0,0,0,0,0,0,0,0,0,0,0,0,0,0,0,0,0,-0.022,-0.0221,0,-0.0285,-0.0285,-0.0286,-0.0345,-0.0346,-0.0347,-0.0347,-0.0448,-0.0449,-0.0451,0,0,0,0,0,0,0,0,0,0,0,0,0,-0.0172,-0.0172,-0.022,-0.0221,-0.0221,-0.0284,-0.0285,-0.0286,-0.0345,-0.0346,-0.0347,-0.0348,-0.0447,-0.0449,-0.0452,0,0,0,0,0,0,0,0,0,0,0,0,0,-0.021,-0.0173,-0.022,-0.0258,-0.0263,-0.0284,-0.0285,-0.0286,-0.0345,-0.0346,-0.0347,-0.0348,-0.0446,-0.0449,-0.0452,-0.0449,0,0,-0.0461,-0.0462,0,0,0,0,0,0,0,0,-0.0208,-0.0212,-0.0252,-0.0256,-0.026,-0.0308,-0.0305,-0.0343,-0.0345,-0.0314,-0.0347,-0.0349,-0.0403,-0.041,-0.0419,-0.0454,-0.0458,-0.0461,-0.0463,-0.0465,-0.0465,0,0,0,0,0,0,0,-0.0205,-0.021,-0.0246,-0.0253,-0.0258,-0.0281,-0.0287,-0.0313,-0.0352,-0.0316,-0.0321,-0.0328,-0.0406,-0.0416,-0.0422,-0.046,-0.0461,-0.0464,-0.0466,-0.0467,-0.0524,-0.0524,0,0,0,0,0,0,-0.0195,-0.0207,-0.0244,-0.0248,-0.0236,-0.0281,-0.0288,-0.0292,-0.0352,-0.0361,-0.0327,-0.033,-0.041,-0.0419,-0.0426,-0.0444,-0.0465,-0.0467,-0.0469,-0.0524,-0.0524,-0.0523,0,0,0,0,0,0,-0.0193,-0.0197,-0.0241,-0.0229,-0.0236,-0.028,-0.0284,-0.0292,-0.0303,-0.0359,-0.037,-0.0329,-0.0412,-0.0422,-0.0449,-0.0447,-0.0469,-0.0471,-0.0525,-0.0524,-0.0524,-0.0468,0,0,0,0,0,0,-0.0192,-0.0196,-0.0192,-0.0228,-0.0236,-0.0245,-0.0283,-0.0293,-0.0306,-0.0311,-0.0365,-0.0375,-0.0413,-0.0444,-0.0452,-0.0452,-0.0474,-0.0525,-0.0524,-0.0524,-0.047,-0.0466,-0.0462,0,0,0,0,0,-0.019,-0.0176,-0.0192,-0.0196,-0.0231,-0.0244,-0.025,-0.0286,-0.0305,-0.0301,-0.0343,-0.0373,-0.0446,-0.0446,-0.0455,-0.0456,-0.0525,-0.0524,-0.0524,-0.0472,-0.0467,-0.0462,0,0,0,0,0,0,-0.0149,-0.0182,-0.02,-0.0197,-0.0216,-0.0254,-0.0254,-0.0277,-0.0306,-0.0313,-0.0367,-0.038,-0.0404,-0.0433,-0.0431,-0.0471,-0.0491,-0.0493,-0.0449,-0.0444,-0.044,-0.0438,-0.0476,0,0,0,0,0,-0.0138,-0.014,-0.0173,-0.0169,-0.0177,-0.0213,-0.0223,-0.0245,-0.0276,-0.029,-0.0329,-0.0371,-0.0407,-0.0427,-0.046,-0.0476,-0.0489,-0.0484,-0.048,-0.0476,-0.0481,-0.0493,-0.049,-0.0521,-0.0521,-0.0521,0,0,-0.012,-0.0138,-0.014,-0.016,-0.018,-0.0186,-0.0221,-0.0228,-0.0239,-0.0296,-0.0317,-0.0354,-0.0407,-0.0431,-0.0445,-0.0457,-0.0468,-0.0475,-0.0472,-0.0479,-0.0492,-0.0489,-0.0487,-0.0521,-0.0521,-0.0521,0,0,-0.0084,-0.0102,-0.0093,-0.0108,-0.0131,-0.0155,-0.0154,-0.0188,-0.0208,-0.0228,-0.0278,-0.0312,-0.0359,-0.0403,-0.043,-0.042,-0.0443,-0.0428,-0.041,-0.0422,-0.0419,-0.0417,-0.0402,-0.0399,-0.0429,-0.0429,-0.0429,0,-0.0061,-0.006,-0.009,-0.0087,-0.0099,-0.0138,-0.0134,-0.0157,-0.0195,-0.021,-0.0227,-0.0301,-0.0348,-0.0389,-0.0397,-0.0412,-0.0411,-0.0424,-0.0415,-0.0414,-0.0413,-0.0398,-0.0396,-0.0426,-0.0427,-0.0427,-0.0427,0,-0.0025,-0.0026,-0.0019,-0.0036,-0.0049,-0.0048,-0.0087,-0.0099,-0.0128,-0.0157,-0.0192,-0.0251,-0.0296,-0.0319,-0.0363,-0.0384,-0.0381,-0.0404,-0.0425,-0.0406,-0.0392,-0.039,-0.0422,-0.0423,-0.0424,-0.0425,0,0,0.0026,0.0009,0.001,0.0009,-0.0025,-0.0028,-0.0044,-0.0071,-0.0065,-0.0117,-0.0108,-0.0206,-0.0235,-0.0269,-0.032,-0.0347,-0.0342,-0.0375,-0.0377,-0.0354,-0.0343,-0.0337,-0.0335,-0.036,-0.036,-0.036,-0.0326,0,0.0062,0.008,0.0054,0.0065,0.0068,0.0024,0.0019,-0.001,-0.0032,-0.0026,-0.0101,-0.0106,-0.0215,-0.0213,-0.027,-0.031,-0.0341,-0.0349,-0.0371,-0.0371,-0.0364,-0.0335,-0.0362,-0.0334,-0.0324,-0.0324,-0.0324,0,0.0099,0.0105,0.0124,0.0115,0.0113,0.0113,0.0102,0.0097,0.0079,0.0072,0.0031,-0.0002,-0.0058,-0.0127,-0.0229,-0.0225,-0.0292,-0.0333,-0.0333,-0.0351,-0.0364,-0.0358,-0.0333,-0.0534,-0.0322,-0.0322,-0.0323,0,0.0146,0.015,0.0166,0.0162,0.0149,0.0149,0.0145,0.0126,0.0162,0.0157,0.0216,0.0107,0.0122,-0.0004,-0.0122,-0.0163,-0.0198,-0.0257,-0.032,-0.0318,-0.0361,-0.0363,-0.0533,-0.033,-0.033,-0.033,-0.033,0,0.0185,0.0199,0.0194,0.0204,0.0239,0.0206,0.0261,0.0241,0.0287,0.0377,0.0282,0.0349,0.0155,0.011,-0.0048,-0.0162,-0.0145,-0.0308,-0.0313,-0.0339,-0.034,-0.0533,-0.0631,-0.0329,-0.0329,-0.0329,-0.033,0,0.0229,0.0224,0.0251,0.0254,0.0263,0.0291,0.0361,0.0423,0.0444,0.0577,0.0603,0.056,0.0497,0.0314,0.0155,-0.0022,-0.0255,-0.0201,-0.0205,-0.0213,-0.0487,-0.0578,-0.0715,-0.0794,-0.0269,-0.0269,-0.0268,0,0.0254,0.0273,0.0302,0.0344,0.035,0.0406,0.0469,0.0497,0.06,0.0721,0.0818,0.0796,0.0807,0.057,0.0257,0.0009,-0.0201,-0.0196,-0.031,-0.0501,-0.0606,-0.0675,-0.0738,-0.033,-0.0331,-0.0331,-0.0331,0,0.0309,0.0318,0.0348,0.0442,0.0509,0.0608,0.0711,0.0823,0.0911,0.1024,0.1172,0.1192,0.0964,0.0693,0.0331,0.0116,-0.0341,-0.0208,-0.0418,-0.0679,-0.0753,-0.083,-0.0337,-0.0333,-0.0333,-0.0333,-0.0333,-0.0332,0.036,0.0405,0.0467,0.0558,0.0656,0.0826,0.0947,0.1083,0.1265,0.1455,0.1437,0.1474,0.1053,0.055,0.0253,-0.0343,-0.0334,-0.0567,-0.0658,-0.0707,-0.0814,-0.0307,-0.0307,-0.0306,-0.0306,-0.0306,-0.0305,0,0.0441,0.0502,0.0592,0.073,0.0884,0.0909,0.1131,0.1271,0.1502,0.1608,0.1709,0.1504,0.0992,0.0452,-0.0305,-0.0726,-0.09,-0.0976,-0.1125,-0.1165,-0.0732,-0.077,-0.0855,-0.0854,-0.0854,-0.0854,-0.0854,-0.0854,0.0493,0.0602,0.0655,0.0921,0.1036,0.1265,0.1409,0.1577,0.1688,0.1817,0.1802,0.1777,0.1381,-0.0004,-0.0946,-0.1179,-0.1475,-0.1545,-0.1657,-0.1427,-0.1398,-0.137,-0.1433,-0.1655,-0.1656,-0.2076,-0.208,-0.2084]}],[{"header":{"parameterUnit":"m.s-1","parameterCategory":2,"la1":30.2991,"la2":30.254,"lo1":-89.0895,"lo2":-89.0444,"dy":0.0017,"dx":0.0017,"nx":28,"ny":28,"refTime":"2026-01-01T03:00:00:Z","depth":"2","parameterNumber":2,"parameterNumberName":"U-component_of_CURRENTS"},"data":[0,0,0,0,0,0,0,0,0,0,0,0,0,0,0,0,0,0,0,0,0,0,0,0,0,0,0,0,0,0,0,0,0,0,0,0,0,0,0,0,0,0,0,0,0,0,0,0,0,0,0,0,0,0,0,0,0,0,0.1602,0.1603,0,0.1657,0.1657,0.1658,0.1695,0.1695,0.1695,0.1696,0.1719,0.1719,0.172,0,0,0,0,0,0,0,0,0,0,0,0,0,0.1496,0.1498,0.1602,0.1603,0.1603,0.1656,0.1657,0.1658,0.1695,0.1695,0.1695,0.1696,0.1719,0.1719,0.172,0,0,0,0,0,0,0,0,0,0,0,0,0,0.1545,0.1498,0.1602,0.1628,0.1631,0.1656,0.1657,0.1658,0.1695,0.1695,0.1696,0.1696,0.1719,0.1719,0.172,0.1715,0,0,0.1721,0.1722,0,0,0,0,0,0,0,0,0.1542,0.1549,0.1624,0.1626,0.163,0.1669,0.1628,0.1676,0.1695,0.1671,0.1696,0.1696,0.1699,0.1701,0.1711,0.1716,0.1717,0.1721,0.1722,0.1722,0.1722,0,0,0,0,0,0,0,0.1539,0.1547,0.1624,0.1624,0.1628,0.1625,0.1633,0.1637,0.1681,0.1673,0.1675,0.1681,0.1701,0.171,0.1712,0.1718,0.1721,0.1722,0.1722,0.1722,0.176,0.176,0,0,0,0,0,0,0.1534,0.1544,0.1622,0.1625,0.1586,0.1627,0.1636,0.1656,0.1682,0.1687,0.1681,0.1683,0.1709,0.1711,0.1713,0.1744,0.1722,0.1722,0.1723,0.1759,0.176,0.1761,0,0,0,0,0,0,0.1532,0.1541,0.162,0.1585,0.1595,0.1629,0.1651,0.1657,0.1683,0.1689,0.1693,0.1702,0.171,0.1712,0.173,0.1744,0.1723,0.1723,0.1758,0.1759,0.176,0.1783,0,0,0,0,0,0,0.1529,0.154,0.1555,0.1585,0.1596,0.1642,0.1651,0.1658,0.1684,0.1688,0.1708,0.171,0.171,0.1729,0.1731,0.1744,0.1724,0.1758,0.1759,0.176,0.1782,0.1785,0.1788,0,0,0,0,0,0.1525,0.1541,0.1556,0.1565,0.1616,0.1642,0.1648,0.1672,0.1685,0.1697,0.1713,0.171,0.1738,0.173,0.1732,0.1745,0.1757,0.1759,0.176,0.178,0.1784,0.1788,0,0,0,0,0,0,0.1506,0.1547,0.1564,0.1594,0.162,0.1648,0.1666,0.168,0.1704,0.171,0.1717,0.172,0.174,0.174,0.1731,0.176,0.1747,0.1749,0.1762,0.1766,0.1769,0.1796,0.1724,0,0,0,0,0,0.1508,0.1529,0.1568,0.159,0.1611,0.1642,0.1658,0.1672,0.1695,0.1707,0.1719,0.1733,0.1745,0.1754,0.1761,0.1776,0.1826,0.1787,0.179,0.1792,0.1816,0.1893,0.1906,0.1766,0.1766,0.1766,0,0,0.1502,0.153,0.154,0.1586,0.1615,0.1642,0.1654,0.1682,0.1701,0.1703,0.1736,0.1742,0.1751,0.177,0.1779,0.1774,0.1862,0.1794,0.1796,0.1819,0.1896,0.191,0.1922,0.1767,0.1766,0.1766,0,0,0.1501,0.1537,0.1558,0.1584,0.1626,0.1644,0.1656,0.1693,0.1714,0.1739,0.1747,0.1766,0.1783,0.1795,0.1802,0.1826,0.1873,0.1827,0.1868,0.1941,0.1954,0.1966,0.2066,0.2086,0.1831,0.1831,0.1831,0,0.1496,0.1534,0.1565,0.1596,0.1622,0.1649,0.1679,0.17,0.1732,0.1763,0.1753,0.1814,0.1797,0.1847,0.1845,0.1834,0.1902,0.1851,0.1948,0.196,0.1972,0.2071,0.2094,0.1832,0.1832,0.1832,0.1832,0,0.1513,0.1548,0.1567,0.1616,0.1643,0.1671,0.1708,0.1735,0.176,0.1791,0.1851,0.185,0.1897,0.1881,0.1865,0.194,0.1971,0.1941,0.1942,0.1988,0.2089,0.2112,0.1834,0.1833,0.1833,0.1833,0,0,0.1496,0.1565,0.1573,0.161,0.166,0.1688,0.1725,0.1783,0.1845,0.1863,0.1958,0.1942,0.1972,0.1983,0.1977,0.2022,0.2136,0.202,0.2023,0.2127,0.2346,0.2293,0.2314,0.2136,0.214,0.2143,0.2391,0,0.1507,0.1562,0.1594,0.1649,0.1688,0.173,0.1777,0.1828,0.1882,0.1976,0.2001,0.2082,0.2005,0.2054,0.208,0.2132,0.2197,0.2075,0.2281,0.2288,0.224,0.2337,0.212,0.2316,0.2414,0.2418,0.2421,0,0.152,0.1558,0.1612,0.1698,0.1725,0.1759,0.1864,0.1911,0.2028,0.2085,0.2164,0.2215,0.2291,0.2224,0.2349,0.2286,0.2324,0.2352,0.2362,0.2323,0.2276,0.2282,0.2355,0.2459,0.2456,0.2453,0.2451,0,0.1502,0.1577,0.1623,0.1648,0.1741,0.1785,0.184,0.1947,0.2031,0.2183,0.2288,0.2373,0.2466,0.251,0.2543,0.2478,0.2703,0.2618,0.2618,0.2617,0.2476,0.2455,0.273,0.273,0.2729,0.2729,0.2728,0,0.1507,0.1548,0.1623,0.1651,0.1738,0.1799,0.1919,0.1989,0.2141,0.2263,0.2356,0.2482,0.2545,0.2666,0.2653,0.2727,0.2798,0.267,0.2684,0.2478,0.2455,0.2596,0.2577,0.2738,0.2736,0.2734,0.2733,0,0.1486,0.1533,0.1593,0.1688,0.1733,0.1794,0.1961,0.2046,0.2198,0.237,0.2439,0.2625,0.276,0.2828,0.2942,0.289,0.2949,0.2955,0.2723,0.2703,0.2792,0.2771,0.2996,0.2996,0.2997,0.2997,0.2997,0,0.1487,0.1511,0.1609,0.1658,0.1706,0.1819,0.19,0.2053,0.2151,0.2434,0.2513,0.2738,0.2818,0.3003,0.2979,0.302,0.3027,0.2864,0.2659,0.2832,0.2824,0.2802,0.2781,0.2507,0.2503,0.25,0.2497,0,0.1481,0.1508,0.1558,0.1653,0.1734,0.1836,0.1962,0.2042,0.2228,0.2378,0.2568,0.2667,0.284,0.2785,0.287,0.2842,0.2826,0.28,0.3093,0.2446,0.2382,0.2369,0.2364,0.2469,0.2472,0.2474,0.2476,0.2477,0.1479,0.1506,0.1572,0.167,0.1752,0.1833,0.1879,0.1998,0.2137,0.2292,0.2452,0.2525,0.2591,0.2573,0.2544,0.2553,0.2694,0.258,0.2585,0.2595,0.2467,0.2403,0.2475,0.2477,0.248,0.2482,0.2483,0,0.1476,0.1525,0.1596,0.1694,0.1748,0.1814,0.191,0.191,0.1988,0.2134,0.2232,0.2116,0.2116,0.2201,0.2154,0.2178,0.2106,0.2119,0.1994,0.2025,0.2053,0.1889,0.1749,0.1746,0.1744,0.1742,0,0,0.148,0.1537,0.1579,0.1678,0.1736,0.1755,0.1771,0.1753,0.1811,0.1817,0.1854,0.1994,0.2123,0.1883,0.1884,0.1811,0.1893,0.1756,0.2352,0.2235,0.2258,0.2338,0.2127,0,0,0,0,0]},{"header":{"parameterUnit":"m.s-1","parameterCategory":2,"la1":30.2991,"la2":30.254,"lo1":-89.0895,"lo2":-89.0444,"dy":0.0017,"dx":0.0017,"nx":28,"ny":28,"refTime":"2026-01-01T03:00:00:Z","depth":"2","parameterNumber":3,"parameterNumberName":"V-component_of_CURRENTS"},"data":[0,0,0,0,0,0,0,0,0,0,0,0,0,0,0,0,0,0,0,0,0,0,0,0,0,0,0,0,0,0,0,0,0,0,0,0,0,0,0,0,0,0,0,0,0,0,0,0,0,0,0,0,0,0,0,0,0,0,-0.017,-0.017,0,-0.0233,-0.0234,-0.0235,-0.0297,-0.0298,-0.0298,-0.0299,-0.0403,-0.0405,-0.0407,0,0,0,0,0,0,0,0,0,0,0,0,0,-0.0122,-0.0122,-0.0169,-0.017,-0.0171,-0.0233,-0.0234,-0.0235,-0.0297,-0.0298,-0.0298,-0.0299,-0.0402,-0.0404,-0.0407,0,0,0,0,0,0,0,0,0,0,0,0,0,-0.0161,-0.0123,-0.0169,-0.0208,-0.0213,-0.0233,-0.0234,-0.0235,-0.0297,-0.0298,-0.0299,-0.03,-0.0401,-0.0404,-0.0407,-0.0405,0,0,-0.0417,-0.0418,0,0,0,0,0,0,0,0,-0.0158,-0.0162,-0.0202,-0.0206,-0.021,-0.0257,-0.0255,-0.0294,-0.0296,-0.0266,-0.0299,-0.03,-0.0356,-0.0363,-0.0374,-0.041,-0.0414,-0.0417,-0.0419,-0.042,-0.0421,0,0,0,0,0,0,0,-0.0156,-0.016,-0.0196,-0.0203,-0.0208,-0.023,-0.0236,-0.0263,-0.0306,-0.0268,-0.0273,-0.0278,-0.0359,-0.037,-0.0376,-0.0416,-0.0417,-0.042,-0.0422,-0.0423,-0.049,-0.049,0,0,0,0,0,0,-0.0143,-0.0157,-0.0194,-0.0197,-0.0185,-0.023,-0.0237,-0.0242,-0.0305,-0.0315,-0.0277,-0.0281,-0.0364,-0.0373,-0.038,-0.0404,-0.042,-0.0423,-0.0425,-0.049,-0.049,-0.049,0,0,0,0,0,0,-0.0142,-0.0146,-0.0191,-0.0178,-0.0185,-0.0229,-0.0234,-0.0243,-0.0258,-0.0311,-0.0322,-0.0284,-0.0366,-0.0376,-0.0407,-0.0408,-0.0425,-0.0427,-0.049,-0.049,-0.049,-0.0437,0,0,0,0,0,0,-0.014,-0.0145,-0.0143,-0.0177,-0.0186,-0.0198,-0.0233,-0.0243,-0.0259,-0.0264,-0.032,-0.0331,-0.0367,-0.0402,-0.041,-0.0413,-0.043,-0.049,-0.049,-0.049,-0.0439,-0.0435,-0.0432,0,0,0,0,0,-0.0139,-0.0129,-0.0143,-0.0147,-0.0182,-0.0197,-0.0204,-0.0239,-0.0258,-0.0258,-0.03,-0.0329,-0.0407,-0.0404,-0.0414,-0.0417,-0.0491,-0.049,-0.049,-0.0441,-0.0436,-0.0432,0,0,0,0,0,0,-0.0105,-0.0135,-0.0151,-0.0151,-0.0171,-0.0208,-0.0211,-0.0233,-0.0265,-0.0273,-0.0325,-0.0338,-0.0367,-0.0396,-0.0392,-0.0436,-0.0454,-0.0456,-0.0414,-0.041,-0.0406,-0.0404,-0.0432,0,0,0,0,0,-0.0095,-0.0098,-0.0129,-0.0127,-0.0136,-0.0172,-0.0182,-0.0204,-0.0237,-0.0252,-0.0292,-0.0335,-0.0371,-0.0393,-0.0427,-0.0447,-0.0464,-0.0456,-0.0453,-0.0449,-0.0454,-0.0473,-0.0471,-0.0489,-0.0489,-0.0489,0,0,-0.0081,-0.0097,-0.0099,-0.012,-0.014,-0.0148,-0.0181,-0.0191,-0.0203,-0.0257,-0.0284,-0.0321,-0.0373,-0.0401,-0.0416,-0.0427,-0.045,-0.0449,-0.0446,-0.0453,-0.0472,-0.0471,-0.0469,-0.0489,-0.0489,-0.0489,0,0,-0.005,-0.0068,-0.0061,-0.0076,-0.0099,-0.0123,-0.0123,-0.0157,-0.018,-0.0203,-0.025,-0.0286,-0.0336,-0.0378,-0.0405,-0.0401,-0.0428,-0.0411,-0.0395,-0.0412,-0.0411,-0.041,-0.0411,-0.0411,-0.0411,-0.0411,-0.0411,0,-0.0032,-0.0031,-0.0059,-0.0059,-0.007,-0.0109,-0.0106,-0.0131,-0.0171,-0.0187,-0.0204,-0.0283,-0.0328,-0.0371,-0.0378,-0.0393,-0.0401,-0.0405,-0.0407,-0.0406,-0.0406,-0.0408,-0.0408,-0.0409,-0.0409,-0.0409,-0.041,0,-0.0001,-0.0003,0.0002,-0.0016,-0.0029,-0.003,-0.0068,-0.0083,-0.0113,-0.0142,-0.0183,-0.0241,-0.0288,-0.031,-0.0349,-0.0375,-0.0378,-0.0395,-0.0414,-0.0401,-0.0404,-0.0405,-0.0405,-0.0406,-0.0407,-0.0407,0,0,0.0039,0.0026,0.0026,0.0025,-0.0007,-0.0012,-0.003,-0.0058,-0.0057,-0.0113,-0.0111,-0.0206,-0.0234,-0.0268,-0.0316,-0.0347,-0.0354,-0.0372,-0.0374,-0.0367,-0.0377,-0.041,-0.0415,-0.0368,-0.0368,-0.0368,-0.0373,0,0.0069,0.0086,0.0064,0.0073,0.0076,0.0034,0.0027,-0.0005,-0.0029,-0.0031,-0.0107,-0.0118,-0.0218,-0.0217,-0.0276,-0.0322,-0.0358,-0.035,-0.0398,-0.0399,-0.0425,-0.0418,-0.0403,-0.041,-0.0374,-0.0374,-0.0375,0,0.0099,0.0108,0.0126,0.012,0.0117,0.0115,0.0102,0.0094,0.0068,0.0057,0.0011,-0.0024,-0.0088,-0.0146,-0.0264,-0.0252,-0.032,-0.0367,-0.0368,-0.0422,-0.0435,-0.0422,-0.0413,-0.0377,-0.0377,-0.0377,-0.0376,0,0.0141,0.0146,0.0164,0.0161,0.015,0.0148,0.0143,0.0119,0.0151,0.0135,0.0185,0.0068,0.0078,-0.0055,-0.0184,-0.0211,-0.0285,-0.0325,-0.0425,-0.0427,-0.0438,-0.0441,-0.0405,-0.0405,-0.0405,-0.0405,-0.0405,0,0.0176,0.0189,0.0189,0.0199,0.0231,0.0201,0.0249,0.0226,0.0264,0.0338,0.0245,0.0298,0.0106,0.0039,-0.0125,-0.0276,-0.0245,-0.0424,-0.0436,-0.0418,-0.0419,-0.0417,-0.0419,-0.0405,-0.0405,-0.0405,-0.0405,0,0.0214,0.0212,0.0239,0.0244,0.0254,0.0278,0.0345,0.0399,0.0414,0.0526,0.0546,0.0499,0.0391,0.0191,0.0012,-0.0158,-0.0317,-0.0377,-0.0341,-0.0351,-0.0462,-0.0461,-0.0493,-0.0494,-0.0495,-0.0496,-0.0497,0,0.0234,0.0254,0.0286,0.0326,0.0332,0.0384,0.0443,0.0469,0.0561,0.0656,0.0739,0.0679,0.0615,0.0324,0.0025,-0.0267,-0.0297,-0.0413,-0.0491,-0.0466,-0.0474,-0.0471,-0.0468,-0.047,-0.047,-0.0471,-0.0471,0,0.0281,0.0291,0.0321,0.0412,0.0475,0.0571,0.0665,0.0762,0.0835,0.0917,0.1008,0.0956,0.0672,0.0363,-0.0028,-0.0225,-0.0382,-0.0433,-0.0395,-0.0461,-0.0449,-0.0455,-0.0452,-0.0475,-0.0474,-0.0474,-0.0474,-0.0474,0.0322,0.0364,0.0425,0.0513,0.061,0.0764,0.0864,0.0968,0.1107,0.1212,0.1167,0.1081,0.0733,0.0198,-0.0108,-0.0403,-0.0421,-0.0533,-0.053,-0.0527,-0.0535,-0.0527,-0.0567,-0.0567,-0.0567,-0.0567,-0.0568,0,0.0385,0.0447,0.0533,0.0667,0.0814,0.0843,0.1029,0.1118,0.1266,0.1297,0.1293,0.097,0.0599,0.0252,-0.0204,-0.051,-0.0531,-0.0578,-0.0536,-0.0532,-0.0529,-0.0535,-0.0568,-0.0568,-0.0569,-0.0569,0,0,0.0424,0.0525,0.0579,0.0833,0.0948,0.1148,0.126,0.1332,0.1379,0.1377,0.1314,0.1111,0.0684,0.0358,-0.0051,-0.0284,-0.0331,-0.0335,-0.0312,-0.0212,-0.0204,-0.0492,-0.0496,0,0,0,0,0]}],[{"header":{"parameterUnit":"m.s-1","parameterCategory":2,"la1":30.2991,"la2":30.254,"lo1":-89.0895,"lo2":-89.0444,"dy":0.0017,"dx":0.0017,"nx":28,"ny":28,"refTime":"2026-01-01T03:00:00:Z","depth":"4","parameterNumber":2,"parameterNumberName":"U-component_of_CURRENTS"},"data":[0,0,0,0,0,0,0,0,0,0,0,0,0,0,0,0,0,0,0,0,0,0,0,0,0,0,0,0,0,0,0,0,0,0,0,0,0,0,0,0,0,0,0,0,0,0,0,0,0,0,0,0,0,0,0,0,0,0,0.0677,0.0677,0,0.0767,0.0768,0.0769,0.0827,0.0828,0.0828,0.0828,0.0898,0.09,0.0901,0,0,0,0,0,0,0,0,0,0,0,0,0,0.0587,0.0588,0.0676,0.0677,0.0678,0.0767,0.0768,0.077,0.0827,0.0828,0.0828,0.0828,0.0897,0.0899,0.0901,0,0,0,0,0,0,0,0,0,0,0,0,0,0.0649,0.0589,0.0676,0.0716,0.072,0.0766,0.0768,0.077,0.0827,0.0828,0.0828,0.0828,0.0897,0.0899,0.0902,0.0915,0,0,0.091,0.0911,0,0,0,0,0,0,0,0,0.0645,0.0652,0.0709,0.0713,0.0718,0.0784,0.0762,0.0816,0.0827,0.079,0.0828,0.0828,0.0856,0.0862,0.0883,0.0918,0.0921,0.091,0.0912,0.0913,0.0914,0,0,0,0,0,0,0,0.0641,0.0649,0.0715,0.071,0.0715,0.074,0.0749,0.0773,0.0822,0.0793,0.0797,0.0802,0.0858,0.088,0.0885,0.0922,0.091,0.0912,0.0914,0.0915,0.0994,0.0995,0,0,0,0,0,0,0.0623,0.0645,0.0712,0.0717,0.0678,0.0741,0.0751,0.0765,0.0823,0.0831,0.0802,0.0804,0.0875,0.0882,0.0887,0.0946,0.0913,0.0915,0.0917,0.0994,0.0994,0.0995,0,0,0,0,0,0,0.062,0.0628,0.0708,0.068,0.0692,0.0742,0.0757,0.0766,0.081,0.0829,0.0838,0.0837,0.0876,0.0884,0.0923,0.0947,0.0917,0.0919,0.0993,0.0994,0.0995,0.1037,0,0,0,0,0,0,0.0618,0.0627,0.0644,0.0679,0.0693,0.0745,0.0757,0.0768,0.081,0.0815,0.0862,0.0868,0.0877,0.0919,0.0925,0.095,0.0921,0.0993,0.0994,0.0994,0.1035,0.1039,0.1043,0,0,0,0,0,0.0614,0.0631,0.0644,0.0653,0.071,0.0746,0.0756,0.0793,0.0811,0.0833,0.0863,0.0867,0.0929,0.0922,0.0929,0.0956,0.0992,0.0993,0.0994,0.1033,0.1039,0.1043,0,0,0,0,0,0,0.0601,0.0639,0.0654,0.0683,0.0715,0.0755,0.0782,0.0806,0.085,0.0863,0.0881,0.0889,0.0936,0.0934,0.0925,0.0978,0.0959,0.0961,0.0986,0.0991,0.0994,0.0972,0.0923,0,0,0,0,0,0.0604,0.063,0.0664,0.069,0.0708,0.075,0.0775,0.0801,0.0837,0.0859,0.0895,0.0921,0.0944,0.0958,0.0984,0.1013,0.1036,0.103,0.1034,0.1038,0.1023,0.1092,0.1101,0.0999,0.0999,0.0999,0,0,0.0614,0.063,0.0652,0.0689,0.0722,0.0753,0.0768,0.0812,0.0837,0.0857,0.0918,0.0948,0.0957,0.0995,0.1014,0.0997,0.1083,0.1039,0.1042,0.1025,0.1094,0.1104,0.1113,0.1,0.0999,0.0999,0,0,0.0623,0.0655,0.0676,0.0706,0.0748,0.0772,0.0788,0.0845,0.0871,0.0918,0.0943,0.0981,0.1022,0.1036,0.1041,0.1078,0.111,0.1092,0.1089,0.1156,0.1166,0.1174,0.1236,0.125,0.1084,0.1084,0.1084,0,0.0629,0.0656,0.0688,0.0711,0.0736,0.0781,0.0808,0.0841,0.0906,0.0931,0.0938,0.1021,0.1034,0.1069,0.1074,0.1088,0.1133,0.1075,0.1164,0.1172,0.118,0.1242,0.1256,0.1086,0.1086,0.1086,0.1086,0,0.0652,0.068,0.0696,0.0738,0.0769,0.0805,0.0843,0.0896,0.0932,0.0961,0.1023,0.1048,0.1091,0.1103,0.1093,0.1154,0.1173,0.1174,0.1156,0.1193,0.1255,0.127,0.1089,0.1089,0.1088,0.1087,0,0,0.0647,0.07,0.0708,0.0727,0.0788,0.0813,0.0865,0.0916,0.095,0.1013,0.1059,0.1091,0.1122,0.1127,0.1143,0.1179,0.1275,0.1193,0.1196,0.1261,0.1439,0.1315,0.1319,0.1308,0.1311,0.1312,0.1468,0,0.0654,0.0686,0.0716,0.0761,0.0784,0.0844,0.0885,0.0942,0.0979,0.1042,0.1079,0.1143,0.1123,0.1167,0.1194,0.1282,0.1311,0.1232,0.1385,0.1389,0.128,0.133,0.1319,0.1479,0.1482,0.1484,0.1486,0,0.0663,0.0681,0.0717,0.0767,0.0785,0.0824,0.0899,0.0948,0.1034,0.1064,0.1125,0.1177,0.1267,0.1232,0.1375,0.1339,0.1372,0.1413,0.1421,0.1291,0.129,0.1427,0.1512,0.151,0.1508,0.1506,0.1505,0,0.0632,0.068,0.0703,0.0727,0.0796,0.0833,0.089,0.0967,0.1024,0.1113,0.1197,0.1257,0.1382,0.1415,0.1494,0.1468,0.1634,0.1619,0.1527,0.152,0.1568,0.1557,0.1674,0.1674,0.1674,0.1673,0.1673,0,0.0617,0.064,0.0695,0.0715,0.0738,0.0825,0.0884,0.0929,0.1055,0.1118,0.1232,0.13,0.1444,0.1552,0.1542,0.1589,0.1688,0.1528,0.1548,0.1584,0.1573,0.158,0.1567,0.1679,0.1678,0.1677,0.1676,0,0.058,0.0619,0.0649,0.0717,0.072,0.0762,0.0882,0.0952,0.109,0.119,0.1257,0.1441,0.1569,0.1659,0.1758,0.1706,0.1716,0.1684,0.1732,0.1753,0.1546,0.1534,0.1627,0.1624,0.1621,0.1619,0.1617,0,0.0554,0.0568,0.0621,0.0641,0.0671,0.0743,0.0797,0.0923,0.0996,0.1222,0.1271,0.1492,0.1564,0.1674,0.1709,0.1725,0.1672,0.1708,0.1582,0.1529,0.1541,0.1532,0.1524,0.1613,0.1612,0.1611,0.1611,0,0.0506,0.0546,0.0576,0.0585,0.063,0.0705,0.0791,0.0844,0.1012,0.114,0.1281,0.1378,0.1525,0.1594,0.1652,0.1616,0.1706,0.1679,0.1683,0.1566,0.1513,0.1526,0.152,0.1601,0.1603,0.1603,0.1604,0,0.0469,0.0468,0.0503,0.0507,0.057,0.0654,0.0728,0.0842,0.0937,0.1161,0.1164,0.1356,0.1485,0.1533,0.1531,0.1552,0.1511,0.1472,0.1486,0.1497,0.137,0.1279,0.1318,0,0,0,0,0,0.0412,0.0391,0.0411,0.0436,0.0531,0.0572,0.0701,0.0809,0.0922,0.0992,0.1089,0.1172,0.1277,0.1362,0.1353,0.1434,0.1498,0.1416,0.1455,0.155,0.1561,0.1417,0,0,0,0,0,0,0.0373,0.0374,0.0365,0.0379,0.0418,0.0521,0.063,0.0754,0.0804,0.0925,0.0996,0.1077,0.1195,0.1254,0.1318,0.1335,0.1336,0.1493,0.149,0.1544,0.1554,0.1562,0.1418,0,0,0,0,0]},{"header":{"parameterUnit":"m.s-1","parameterCategory":2,"la1":30.2991,"la2":30.254,"lo1":-89.0895,"lo2":-89.0444,"dy":0.0017,"dx":0.0017,"nx":28,"ny":28,"refTime":"2026-01-01T03:00:00:Z","depth":"4","parameterNumber":3,"parameterNumberName":"V-component_of_CURRENTS"},"data":[0,0,0,0,0,0,0,0,0,0,0,0,0,0,0,0,0,0,0,0,0,0,0,0,0,0,0,0,0,0,0,0,0,0,0,0,0,0,0,0,0,0,0,0,0,0,0,0,0,0,0,0,0,0,0,0,0,0,0.0066,0.0065,0,0.001,0.0009,0.0009,-0.0025,-0.0025,-0.0025,-0.0025,-0.0113,-0.0115,-0.0117,0,0,0,0,0,0,0,0,0,0,0,0,0,0.0104,0.0104,0.0066,0.0065,0.0065,0.001,0.0009,0.0008,-0.0025,-0.0025,-0.0025,-0.0025,-0.0112,-0.0115,-0.0118,0,0,0,0,0,0,0,0,0,0,0,0,0,0.007,0.0103,0.0066,0.0043,0.004,0.001,0.0009,0.0008,-0.0025,-0.0025,-0.0025,-0.0025,-0.0111,-0.0115,-0.0118,-0.0139,0,0,-0.0129,-0.013,0,0,0,0,0,0,0,0,0.0072,0.0069,0.0046,0.0044,0.0041,0.0001,-0.0009,-0.0042,-0.0025,-0.0002,-0.0025,-0.0025,-0.0077,-0.0083,-0.0095,-0.0143,-0.0147,-0.0129,-0.0131,-0.0133,-0.0134,0,0,0,0,0,0,0,0.0075,0.0071,0.0042,0.0046,0.0043,0.0022,0.0017,-0.0016,-0.0041,-0.0004,-0.0006,-0.001,-0.0079,-0.0092,-0.0098,-0.0148,-0.0129,-0.0132,-0.0134,-0.0135,-0.023,-0.023,0,0,0,0,0,0,0.0087,0.0073,0.0044,0.004,0.0059,0.0021,0.0016,0.0012,-0.004,-0.0047,-0.001,-0.0011,-0.0086,-0.0094,-0.0101,-0.0135,-0.0133,-0.0136,-0.0138,-0.0229,-0.023,-0.023,0,0,0,0,0,0,0.0088,0.0085,0.0046,0.0057,0.0051,0.0021,0.0017,0.0011,-0.0006,-0.0043,-0.0051,-0.0021,-0.0086,-0.0096,-0.0133,-0.0138,-0.0137,-0.0141,-0.0229,-0.023,-0.023,-0.0199,0,0,0,0,0,0,0.0089,0.0086,0.0084,0.0058,0.0051,0.0029,0.0017,0.001,-0.0007,-0.0009,-0.0055,-0.0063,-0.0087,-0.0128,-0.0137,-0.0143,-0.0143,-0.0228,-0.0229,-0.023,-0.0199,-0.0198,-0.0198,0,0,0,0,0,0.0091,0.009,0.0084,0.008,0.005,0.0029,0.0023,0.0,-0.0007,-0.0015,-0.0046,-0.0062,-0.0139,-0.0131,-0.0141,-0.0149,-0.0228,-0.0229,-0.023,-0.02,-0.0199,-0.0198,0,0,0,0,0,0,0.0104,0.0086,0.0079,0.0072,0.0052,0.0024,0.0014,-0.0,-0.0031,-0.0035,-0.007,-0.0081,-0.0118,-0.0138,-0.0128,-0.0179,-0.0185,-0.0188,-0.0159,-0.0158,-0.0157,-0.0125,-0.0146,0,0,0,0,0,0.0108,0.0103,0.0081,0.0075,0.0066,0.004,0.0027,0.0013,-0.0015,-0.0028,-0.0061,-0.0096,-0.0129,-0.0146,-0.0181,-0.0208,-0.0233,-0.0219,-0.0218,-0.0217,-0.0198,-0.025,-0.0251,-0.0234,-0.0234,-0.0234,0,0,0.011,0.0101,0.0097,0.0078,0.006,0.0051,0.0031,0.0014,0.0008,-0.0034,-0.006,-0.0099,-0.0138,-0.0169,-0.0186,-0.0185,-0.0239,-0.0218,-0.0217,-0.0198,-0.0251,-0.0253,-0.0254,-0.0234,-0.0234,-0.0234,0,0,0.0119,0.0106,0.0106,0.0092,0.0072,0.0056,0.0052,0.0021,0.0008,-0.0021,-0.0054,-0.0088,-0.0142,-0.0165,-0.0184,-0.0198,-0.0237,-0.0218,-0.0182,-0.0233,-0.0234,-0.0236,-0.0281,-0.0287,-0.0211,-0.0211,-0.0211,0,0.0123,0.0125,0.0102,0.0099,0.0095,0.0061,0.0063,0.0042,0.0002,-0.0006,-0.0024,-0.0101,-0.0134,-0.0165,-0.0166,-0.0194,-0.0231,-0.0182,-0.023,-0.0232,-0.0235,-0.0281,-0.0288,-0.021,-0.021,-0.021,-0.021,0,0.013,0.0134,0.0132,0.0122,0.0111,0.0106,0.0081,0.0065,0.0044,0.0021,-0.0019,-0.0071,-0.011,-0.0133,-0.015,-0.0182,-0.0208,-0.0228,-0.0229,-0.0234,-0.0283,-0.0291,-0.0208,-0.0208,-0.0209,-0.0209,0,0,0.0133,0.014,0.0138,0.0152,0.0127,0.0124,0.0113,0.0099,0.0093,0.0045,0.0027,-0.0023,-0.0055,-0.0077,-0.0118,-0.0152,-0.0203,-0.0188,-0.0191,-0.0225,-0.032,-0.0309,-0.0317,-0.0241,-0.0242,-0.0243,-0.0352,0,0.0148,0.0169,0.0161,0.0179,0.0189,0.0166,0.0162,0.0142,0.0112,0.0077,0.0027,-0.0018,-0.0035,-0.0065,-0.0099,-0.0186,-0.022,-0.0171,-0.0316,-0.032,-0.0303,-0.0324,-0.0245,-0.0357,-0.0359,-0.0361,-0.0361,0,0.0153,0.0175,0.0201,0.0229,0.0229,0.0234,0.0229,0.0214,0.0162,0.0136,0.0089,0.0028,-0.003,-0.0054,-0.0171,-0.0145,-0.0216,-0.0278,-0.0284,-0.0283,-0.0322,-0.0351,-0.0376,-0.0375,-0.0374,-0.0373,-0.0372,0,0.0174,0.0203,0.0235,0.0239,0.0253,0.027,0.027,0.0237,0.0225,0.0159,0.0132,0.0051,-0.0008,-0.0098,-0.0212,-0.0205,-0.0354,-0.0367,-0.042,-0.0421,-0.0411,-0.0408,-0.0443,-0.0443,-0.0443,-0.0442,-0.0442,0,0.0192,0.0216,0.0256,0.0272,0.0311,0.0305,0.0328,0.0304,0.0265,0.023,0.0162,0.0109,-0.0024,-0.0128,-0.022,-0.0342,-0.0363,-0.041,-0.0446,-0.0398,-0.0393,-0.0418,-0.0414,-0.0446,-0.0445,-0.0445,-0.0444,0,0.0197,0.022,0.0261,0.0304,0.0321,0.0341,0.0369,0.0368,0.0333,0.0279,0.0251,0.0135,0.0,-0.0126,-0.0298,-0.0352,-0.0474,-0.0511,-0.045,-0.0483,-0.0505,-0.0498,-0.0579,-0.058,-0.058,-0.058,-0.0581,0,0.0203,0.0225,0.0282,0.0309,0.0333,0.0378,0.0396,0.0392,0.0376,0.0288,0.0244,0.0115,0.0028,-0.0182,-0.0319,-0.0494,-0.0507,-0.0566,-0.0519,-0.049,-0.0518,-0.051,-0.0503,-0.0581,-0.0581,-0.0581,-0.0581,0,0.0209,0.0225,0.0259,0.0311,0.035,0.0399,0.0424,0.0425,0.0381,0.0354,0.0246,0.0126,-0.0024,-0.0183,-0.0319,-0.0444,-0.0526,-0.0571,-0.057,-0.0527,-0.0494,-0.052,-0.0512,-0.0583,-0.0583,-0.0583,-0.0582,0,0.0203,0.0223,0.0259,0.0301,0.0341,0.0378,0.0425,0.0415,0.0404,0.0309,0.0265,0.0112,0.0012,-0.0161,-0.0296,-0.0408,-0.0425,-0.0444,-0.045,-0.045,-0.0371,-0.0308,-0.0369,0,0,0,0,0,0.019,0.0203,0.0244,0.0284,0.0321,0.0357,0.0398,0.0434,0.0403,0.0336,0.0309,0.017,-0.0029,-0.0122,-0.0228,-0.0308,-0.0453,-0.0437,-0.0477,-0.059,-0.0589,-0.0516,0,0,0,0,0,0,0.0175,0.0209,0.0228,0.0245,0.0275,0.0325,0.0365,0.0375,0.0354,0.0309,0.0216,0.0144,-0.0037,0.0028,-0.0235,-0.0274,-0.0312,-0.0536,-0.0538,-0.0591,-0.059,-0.0589,-0.0513,0,0,0,0,0]}]]